Simultaneous Nadir Overpasses (SNOs) Predictions

Prediction of SNOs between AQUA and METOP-B Satellite Orbit:

Table of predicted SNOs for the next 14.0 days since TLE Epoch: 8/6/2022
Index Date (AQUA) Time (AQUA) Lat,Lon (AQUA) SZA (AQUA ) Date (METOP-B) Time (METOP-B) Lat,Lon (METOP-B) SZA (METOP-B ) Distance(km) Time Diff (sec)
1 08/06/2022 20:35:10 -73.70, 46.58 122.81 08/06/2022 20:34:00 -73.62, 45.15 122.82 45.72 70
2 08/06/2022 21:24:44 74.06,-146.59 57.59 08/06/2022 21:24:31 74.05,-146.48 57.58 3.62 13
3 08/06/2022 22:14:10 -74.11, 20.95 122.35 08/06/2022 22:15:12 -74.09, 20.94 122.38 1.95 62
4 08/09/2022 16:08:51 -74.01, 112.50 121.68 08/09/2022 16:08:12 -74.02, 112.52 121.66 1.26 39
5 08/09/2022 16:58:19 74.07, -79.99 58.39 08/09/2022 16:58:51 74.06, -80.05 58.39 1.84 32
6 08/12/2022 10:53:01 73.99, 11.52 59.12 08/12/2022 10:51:52 73.99, 11.52 59.13 0.43 69
7 08/12/2022 11:42:28 -74.08, 178.96 120.78 08/12/2022 11:42:32 -74.08, 179.06 120.79 3.14 4
8 08/12/2022 12:31:57 74.19, -13.67 59.36 08/12/2022 12:33:09 74.21, -13.26 59.35 12.50 72
9 08/15/2022 06:26:37 74.03, 78.05 60.01 08/15/2022 06:26:12 74.04, 78.06 60.03 1.42 25
10 08/15/2022 07:16:04 -74.11,-114.49 119.89 08/15/2022 07:16:53 -74.08,-114.52 119.93 3.44 49
11 08/18/2022 01:10:44 -74.00, -22.91 119.14 08/18/2022 01:09:53 -74.00, -22.96 119.13 1.61 51
12 08/18/2022 02:00:12 74.07, 144.56 60.95 08/18/2022 02:00:31 74.09, 144.59 60.96 1.50 19



Historial Predications of SNOs between AQUA and METOP-B
